Ankeny, IA

9:51 AM CST on December 14, 2019 (GMT -0600)
Ankeny Regional

Weather History for KIKV - November, 2019

Change the Weather History Date:

Tuesday, November 12, 2019

  Actual Average (KDSM) Record (KDSM)
Temperature  
Mean Temperature 10 °F -  
Max Temperature 19 °F 45 °F 71 °F (1902)
Min Temperature 0 °F 28 °F 4 °F (1986)
Degree Days  
Heating Degree Days 56    
Moisture  
Dew Point 2 °F    
Average Humidity 68    
Maximum Humidity 92    
Minimum Humidity 49    
Precipitation  
Precipitation 0.00 in - - ()
Sea Level Pressure  
Sea Level Pressure 30.47 in    
Wind  
Wind Speed 7 mph ()    
Max Wind Speed 20 mph    
Max Gust Speed 26 mph    
Visibility 10.0 miles    
Events      
Averages and records for this station are not official NWS values.
T = Trace of Precipitation, MM = Missing Value Source: Averaged Metar Reports

Daily Weather History Graph

Daily Weather History Graph

Search for Another Location

Airport or City:

Astronomy

Nov. 12, 2019 Rise Set
Actual Time 6:59 AM CST 4:56 PM CST
Civil Twilight 6:29 AM CST 5:26 PM CST
Nautical Twilight 5:56 AM CST 5:59 PM CST
Astronomical Twilight 5:23 AM CST 6:32 PM CST
Moon 5:24 PM CST (11/12) 6:51 AM CST (11/12)
Length of Visible Light 10h 56m
Length of Day
9h 57m
Full, 100% of the Moon is Illuminated
Nov 12
Full
Nov 19
Last Quarter
Nov 26
New
Dec 4
First Quarter
Dec 11
Full

Hourly Weather History & Observations

Time (CST) Temp. Windchill Dew Point Humidity Pressure Visibility Wind Dir Wind Speed Gust Speed Precip Events Conditions
12:15 AM 8.6 °F -3.7 °F -0.4 °F 67% 30.65 in 10.0 mi NNW 8.1 mph - N/A   Clear
12:35 AM 8.6 °F -5.5 °F -0.4 °F 67% 30.65 in 10.0 mi NNW 10.4 mph - N/A   Clear
12:55 AM 6.8 °F -6.9 °F -0.4 °F 72% 30.65 in 10.0 mi NW 9.2 mph - N/A   Clear
1:15 AM 6.8 °F -6.9 °F -0.4 °F 72% 30.65 in 10.0 mi NW 9.2 mph - N/A   Clear
1:35 AM 6.8 °F -5.9 °F -0.4 °F 72% 30.65 in 10.0 mi NW 8.1 mph - N/A   Clear
1:55 AM 6.8 °F -5.9 °F -0.4 °F 72% 30.65 in 10.0 mi NW 8.1 mph - N/A   Clear
2:15 AM 6.8 °F -5.9 °F -0.4 °F 72% 30.65 in 10.0 mi NW 8.1 mph - N/A   Clear
2:35 AM 6.8 °F -4.8 °F -0.4 °F 72% 30.64 in 10.0 mi NW 6.9 mph - N/A   Clear
2:55 AM 5.0 °F -8.1 °F -0.4 °F 78% 30.64 in 10.0 mi WNW 8.1 mph - N/A   Clear
3:15 AM 5.0 °F -8.1 °F -0.4 °F 78% 30.63 in 10.0 mi WNW 8.1 mph - N/A   Clear
3:35 AM 5.0 °F -5.6 °F -0.4 °F 78% 30.63 in 10.0 mi WNW 5.8 mph - N/A   Clear
3:55 AM 5.0 °F -8.1 °F -0.4 °F 78% 30.63 in 10.0 mi WNW 8.1 mph - N/A   Clear
4:15 AM 5.0 °F -8.1 °F -0.4 °F 78% 30.63 in 10.0 mi NW 8.1 mph - N/A   Clear
4:35 AM 5.0 °F -6.9 °F -0.4 °F 78% 30.63 in 10.0 mi NW 6.9 mph - N/A   Clear
4:55 AM 5.0 °F -6.9 °F -0.4 °F 78% 30.63 in 10.0 mi NW 6.9 mph - N/A   Clear
5:15 AM 3.2 °F -9.1 °F -0.4 °F 85% 30.63 in 10.0 mi WNW 6.9 mph - N/A   Clear
5:35 AM 1.4 °F -9.9 °F -2.2 °F 85% 30.64 in 10.0 mi West 5.8 mph - N/A   Clear
5:55 AM 1.4 °F - -2.2 °F 85% 30.63 in 10.0 mi Calm Calm - N/A   Clear
6:15 AM 1.4 °F - -2.2 °F 85% 30.63 in 10.0 mi Calm Calm - N/A   Clear
6:35 AM 1.4 °F - -2.2 °F 85% 30.62 in 10.0 mi Calm Calm - N/A   Clear
6:55 AM -0.4 °F - -2.2 °F 92% 30.62 in 10.0 mi Calm Calm - N/A   Clear
7:15 AM -0.4 °F - -2.2 °F 92% 30.61 in 10.0 mi Calm Calm - N/A   Clear
7:55 AM 1.4 °F - -2.2 °F 85% 30.62 in 10.0 mi Calm Calm - N/A   Clear
8:15 AM 3.2 °F -7.8 °F -0.4 °F 85% 30.62 in 10.0 mi WSW 5.8 mph - N/A   Clear
8:35 AM 3.2 °F -4.2 °F -0.4 °F 85% 30.62 in 10.0 mi WSW 3.5 mph - N/A   Clear
8:55 AM 5.0 °F -4.1 °F -0.4 °F 78% 30.62 in 10.0 mi WSW 4.6 mph - N/A   Clear
9:15 AM 5.0 °F -4.1 °F -0.4 °F 78% 30.62 in 10.0 mi West 4.6 mph - N/A   Clear
9:35 AM 6.8 °F - 1.4 °F 79% 30.61 in 10.0 mi Calm Calm - N/A   Clear
9:55 AM 8.6 °F 0.1 °F 1.4 °F 73% 30.60 in 10.0 mi West 4.6 mph - N/A   Clear
10:15 AM 10.4 °F - 1.4 °F 67% 30.60 in 10.0 mi Calm Calm - N/A   Clear
10:35 AM 10.4 °F - 1.4 °F 67% 30.60 in 10.0 mi Calm Calm - N/A   Clear
11:15 AM 12.2 °F 0.7 °F 1.4 °F 62% 30.57 in 10.0 mi South 8.1 mph - N/A   Clear
11:35 AM 14.0 °F 2.9 °F -0.4 °F 53% 30.56 in 10.0 mi South 8.1 mph - N/A   Clear
11:55 AM 14.0 °F 2.0 °F -0.4 °F 53% 30.54 in 10.0 mi South 9.2 mph - N/A   Clear
12:15 PM 14.0 °F 2.0 °F -0.4 °F 53% 30.52 in 10.0 mi SSW 9.2 mph - N/A   Clear
12:35 PM 15.8 °F 5.1 °F 1.4 °F 53% 30.50 in 10.0 mi SSW 8.1 mph 13.8 mph N/A   Clear
12:55 PM 15.8 °F 5.1 °F 1.4 °F 53% 30.49 in 10.0 mi South 8.1 mph - N/A   Clear
1:15 PM 15.8 °F 3.4 °F 1.4 °F 53% 30.48 in 10.0 mi South 10.4 mph - N/A   Clear
1:35 PM 15.8 °F 6.1 °F 1.4 °F 53% 30.46 in 10.0 mi South 6.9 mph 15.0 mph N/A   Clear
1:55 PM 17.6 °F 5.7 °F 1.4 °F 49% 30.45 in 10.0 mi South 10.4 mph - N/A   Clear
2:15 PM 17.6 °F 5.0 °F 3.2 °F 53% 30.43 in 10.0 mi South 11.5 mph - N/A   Clear
2:35 PM 17.6 °F 4.3 °F 3.2 °F 53% 30.42 in 10.0 mi South 12.7 mph - N/A   Clear
2:55 PM 19.4 °F 7.9 °F 3.2 °F 49% 30.41 in 10.0 mi South 10.4 mph - N/A   Clear
3:15 PM 19.4 °F 7.2 °F 3.2 °F 49% 30.40 in 10.0 mi South 11.5 mph 17.3 mph N/A   Clear
3:35 PM 19.4 °F 7.2 °F 5.0 °F 54% 30.38 in 10.0 mi South 11.5 mph 17.3 mph N/A   Clear
3:55 PM 17.6 °F 7.3 °F 5.0 °F 58% 30.37 in 10.0 mi South 8.1 mph 16.1 mph N/A   Clear
4:15 PM 17.6 °F 5.0 °F 5.0 °F 58% 30.37 in 10.0 mi South 11.5 mph - N/A   Clear
4:35 PM 19.4 °F 5.0 °F 5.0 °F 54% 30.35 in 10.0 mi South 16.1 mph - N/A   Clear
5:15 PM 17.6 °F 4.3 °F 5.0 °F 58% 30.34 in 10.0 mi South 12.7 mph - N/A   Clear
5:35 PM 17.6 °F 7.3 °F 5.0 °F 58% 30.33 in 10.0 mi South 8.1 mph 15.0 mph N/A   Clear
5:55 PM 17.6 °F 6.4 °F 5.0 °F 58% 30.31 in 10.0 mi South 9.2 mph 16.1 mph N/A   Clear
6:15 PM 17.6 °F 5.0 °F 6.8 °F 63% 30.29 in 10.0 mi South 11.5 mph 17.3 mph N/A   Clear
6:35 PM 17.6 °F 3.2 °F 5.0 °F 58% 30.26 in 10.0 mi South 15.0 mph 20.7 mph N/A   Clear
6:55 PM 17.6 °F 1.3 °F 6.8 °F 63% 30.23 in 10.0 mi SSE 19.6 mph - N/A   Clear
7:15 PM 17.6 °F 3.7 °F 6.8 °F 63% 30.23 in 10.0 mi South 13.8 mph 20.7 mph N/A   Clear
7:35 PM 15.8 °F 3.4 °F 6.8 °F 68% 30.22 in 10.0 mi South 10.4 mph 24.2 mph N/A   Clear
7:55 PM 15.8 °F 1.4 °F 6.8 °F 68% 30.22 in 10.0 mi South 13.8 mph 26.5 mph N/A   Clear
8:15 PM 15.8 °F 1.4 °F 6.8 °F 68% 30.21 in 10.0 mi South 13.8 mph 21.9 mph N/A   Clear
8:35 PM 15.8 °F 2.7 °F 5.0 °F 62% 30.20 in 10.0 mi South 11.5 mph 18.4 mph N/A   Clear
9:15 PM 15.8 °F 4.2 °F 5.0 °F 62% 30.21 in 10.0 mi South 9.2 mph - N/A   Clear
9:35 PM 15.8 °F 6.1 °F 5.0 °F 62% 30.23 in 10.0 mi South 6.9 mph - N/A   Clear
9:55 PM 14.0 °F 5.1 °F 5.0 °F 67% 30.23 in 10.0 mi SSE 5.8 mph - N/A   Clear
10:15 PM 14.0 °F 2.0 °F 5.0 °F 67% 30.21 in 10.0 mi SSE 9.2 mph - N/A   Clear
10:35 PM 14.0 °F 1.2 °F 6.8 °F 73% 30.18 in 10.0 mi SSE 10.4 mph - N/A   Clear
10:55 PM 14.0 °F 2.0 °F 6.8 °F 73% 30.18 in 10.0 mi South 9.2 mph - N/A   Clear
11:15 PM 14.0 °F 0.5 °F 6.8 °F 73% 30.17 in 10.0 mi South 11.5 mph - N/A   Clear
11:35 PM 15.8 °F 2.1 °F 8.6 °F 73% 30.15 in 10.0 mi SSE 12.7 mph - N/A   Clear
11:55 PM 15.8 °F 2.7 °F 8.6 °F 73% 30.13 in 10.0 mi South 11.5 mph - N/A   Clear